Orbital Elements at Epoch 2459000.5 (2020-May-31.0) TDB
Reference: JPL 11 (heliocentric ecliptic J2000)
Element | Value | Uncertainty (1-sigma) | Units |
e | .1981149599529336 | 7.8382e-08 | |
a | 3.173362797314069 | 5.0981e-08 | au |
q | 2.544672153808063 | 2.4624e-07 | au |
i | 23.65670965105327 | 7.7723e-06 | deg |
node | 285.1844522386912 | 2.3235e-05 | deg |
peri | 25.90135979054839 | 3.3693e-05 | deg |
M | 224.9311953786149 | 2.8679e-05 | deg |
tp | 2459775.194676170312 (2022-Jul-14.69467617) | 0.00017648 | TDB |
period | 2064.800115785999 5.65 | 4.9758e-05 1.362e-07 | d yr |
n | .1743510169568934 | 4.2015e-09 | deg/d |
Q | 3.802053440820075 | 6.1081e-08 | au |
|
| | Orbit Determination Parameters
Additional Information
|